Location: Pl�tzky
(52.0521°N, 11.8020°E)
Time: 10:18:38
(UTC+00:00)

N. Korean satellite - Pass Details

Date: 29 January 2021
Orbit: 451 x 502 km, 97.2° (Epoch: 07 March)

Event Time Altitude Azimuth Distance (km) Brightness Sun altitude
Rises 16:42:24 0° 203° (SSW) 2,568 10.9 -7.4°
Reaches altitude 10° 16:44:57 10° 222° (SW) 1,683 10.4 -7.8°
Maximum altitude 16:47:33 18° 268° (W) 1,241 9.8 -8.2°
Drops below altitude 10° 16:50:08 10° 314° (NW) 1,674 9.7 -8.6°
Sets 16:52:41 0° 334° (NNW) 2,548 10.3 -8.9°
